FW1562 Weather Reports


Display with metric or nautical units.
time (UTC)temp
F
wind
direction
speed
MPH
gust
MPH
rain 1hr
in
rain 24hr
in
rain mn
in
humidity
%
barometer
mb
20260505164516 77 170 2.0 9.0 0.00 0.00 0.00 89 1012.1
20260505164013 77 211 1.0 10.0 0.00 0.00 0.00 90 1012.0
20260505163514 76 195 0.0 10.0 0.00 0.00 0.00 89 1011.9
20260505163013 76 233 1.0 7.0 0.00 0.00 0.00 89 1012.1
20260505162512 76 173 1.0 7.0 0.00 0.00 0.00 89 1012.0
20260505162011 76 188 0.0 5.0 0.00 0.00 0.00 89 1012.1
20260505161744 76 200 0.0 9.0 0.00 0.00 0.00 89 1012.1
20260505161243 76 183 0.0 9.0 0.00 0.00 0.00 90 1012.1
20260505160743 76 209 0.0 4.0 0.00 0.00 0.00 90 1012.1
20260505153011 74 226 3.0 11.0 0.00 0.00 0.00 92 1012.3
20260505152510 74 209 4.0 10.0 0.00 0.00 0.00 91 1012.2
20260505152010 74 185 4.0 10.0 0.00 0.00 0.00 91 1012.2
20260505151511 74 202 4.0 10.0 0.00 0.00 0.00 91 1012.3
20260505151009 74 180 4.0 9.0 0.00 0.00 0.00 91 1012.3
20260505150510 74 219 5.0 12.0 0.00 0.00 0.00 91 1012.2
20260505140508 73 161 1.0 11.0 0.00 0.00 0.00 93 1012.0
20260505125003 71 173 1.0 9.0 0.00 0.00 0.00 93 1011.5
20260505124734 71 171 1.0 9.0 0.00 0.00 0.00 93 1011.5
20260505124004 71 168 0.0 10.0 0.00 0.00 0.00 93 1011.6
20260505123734 71 252 0.0 10.0 0.00 0.00 0.00 94 1011.6
20260505123002 71 185 1.0 8.0 0.00 0.00 0.00 94 1011.6
20260505122504 71 192 1.0 8.0 0.00 0.00 0.00 94 1011.6
20260505122004 71 194 0.0 6.0 0.00 0.00 0.00 94 1011.4
20260505121503 71 172 0.0 6.0 0.00 0.00 0.00 94 1011.1
20260505121004 71 207 1.0 9.0 0.00 0.00 0.00 94 1011.4
20260505120502 71 178 1.0 9.0 0.00 0.00 0.00 94 1011.3
20260505120002 70 219 1.0 8.0 0.00 0.00 0.00 94 1011.2
20260505115502 70 205 1.0 9.0 0.00 0.00 0.00 94 1010.8
20260505115004 70 145 1.0 9.0 0.00 0.00 0.00 94 1010.9
20260505114501 70 177 0.0 6.0 0.00 0.00 0.00 94 1011.2
20260505114000 70 207 0.0 6.0 0.00 0.00 0.00 94 1011.3
20260505113457 70 185 0.0 7.0 0.00 0.00 0.00 94 1010.8
20260505112958 70 207 1.0 10.0 0.00 0.00 0.00 94 1010.8
20260505112457 70 177 1.0 10.0 0.00 0.00 0.00 94 1010.8
20260505111958 70 176 1.0 10.0 0.00 0.00 0.00 94 1010.8
20260505111458 70 209 1.0 9.0 0.00 0.00 0.00 94 1010.9
20260505110956 70 191 1.0 9.0 0.00 0.00 0.00 94 1011.0
20260505110727 70 185 0.0 5.0 0.00 0.00 0.00 93 1011.1
20260505101957 70 147 3.0 12.0 0.00 0.00 0.00 93 1011.0
20260505101455 70 171 1.0 12.0 0.00 0.00 0.00 93 1010.9
20260505100955 70 164 1.0 8.0 0.00 0.00 0.00 93 1010.9
20260505100455 69 178 1.0 9.0 0.00 0.00 0.00 93 1011.1
20260505095955 70 246 1.0 11.0 0.00 0.00 0.00 93 1011.0
20260505095453 70 179 1.0 11.0 0.00 0.00 0.00 93 1011.0
20260505094953 70 147 0.0 1.0 0.00 0.00 0.00 93 1010.9
20260505094452 70 172 0.0 3.0 0.00 0.00 0.00 93 1011.0
20260505093953 70 205 0.0 3.0 0.00 0.00 0.00 93 1011.3
20260505093452 69 196 0.0 1.0 0.00 0.00 0.00 93 1011.4
20260505092951 69 169 0.0 5.0 0.00 0.00 0.00 93 1011.5
20260505092450 69 168 0.0 5.0 0.00 0.00 0.00 93 1011.1
20260505091950 69 186 0.0 1.0 0.00 0.00 0.00 93 1011.3
20260505091449 69 163 0.0 1.0 0.00 0.00 0.00 93 1011.0
20260505090946 69 184 0.0 4.0 0.00 0.00 0.00 93 1011.1
20260505090447 69 192 0.0 4.0 0.00 0.00 0.00 93 1011.3
20260505085947 69 158 0.0 9.0 0.00 0.00 0.00 93 1011.3
20260505085448 69 161 0.0 9.0 0.00 0.00 0.00 93 1011.5
20260505084947 69 186 0.0 6.0 0.00 0.00 0.00 92 1011.5
20260505084445 69 180 0.0 6.0 0.00 0.00 0.00 92 1011.5
20260505083946 69 178 0.0 5.0 0.00 0.00 0.00 92 1011.6
20260505083444 69 169 0.0 5.0 0.00 0.00 0.00 92 1011.8
20260505082944 69 184 0.0 6.0 0.00 0.00 0.00 92 1012.0
20260505082718 69 193 0.0 7.0 0.00 0.00 0.00 91 1012.0
20260505081944 69 177 1.0 11.0 0.00 0.00 0.00 91 1011.9
20260505081444 69 162 1.0 11.0 0.00 0.00 0.00 91 1012.0
20260505080945 70 161 0.0 6.0 0.00 0.00 0.00 90 1011.8
20260505080444 70 187 0.0 5.0 0.00 0.00 0.00 90 1011.9
20260505080215 70 183 0.0 1.0 0.00 0.00 0.00 90 1012.0
20260505075444 70 184 0.0 1.0 0.00 0.00 0.00 90 1012.2
20260505074945 70 175 0.0 1.0 0.00 0.00 0.00 90 1012.2
20260505074445 70 178 0.0 8.0 0.00 0.00 0.00 90 1012.3
20260505074214 70 175 0.0 8.0 0.00 0.00 0.00 90 1012.3
20260505073713 70 207 0.0 4.0 0.00 0.00 0.00 90 1012.4
20260505072944 70 206 0.0 8.0 0.00 0.00 0.00 90 1012.4
20260505072443 70 212 0.0 8.0 0.00 0.00 0.00 90 1012.3
20260505071943 70 207 0.0 7.0 0.00 0.00 0.00 89 1012.3
20260505071442 70 185 0.0 7.0 0.00 0.00 0.00 89 1012.4
20260505070940 70 169 0.0 1.0 0.00 0.00 0.00 89 1012.5
20260505070711 70 167 0.0 6.0 0.00 0.00 0.00 89 1012.5
20260505065941 70 178 0.0 6.0 0.00 0.00 0.00 89 1012.5
20260505065439 70 171 0.0 7.0 0.00 0.00 0.00 89 1012.6
20260505064939 70 157 0.0 7.0 0.00 0.00 0.00 89 1012.8
20260505064437 70 146 0.0 1.0 0.00 0.00 0.00 89 1012.8
20260505063934 70 171 0.0 4.0 0.00 0.00 0.00 88 1012.9
20260505063434 70 169 0.0 8.0 0.00 0.00 0.00 88 1012.9
20260505062935 70 163 0.0 8.0 0.00 0.00 0.00 88 1012.9
20260505062435 70 175 0.0 1.0 0.00 0.00 0.00 88 1012.9
20260505061933 70 171 0.0 1.0 0.00 0.00 0.00 87 1012.9
20260505061431 70 161 0.0 1.0 0.00 0.00 0.00 87 1012.8
20260505060932 70 170 0.0 1.0 0.00 0.00 0.00 87 1012.9
20260505060430 70 173 0.0 12.0 0.00 0.00 0.00 87 1012.8
20260505060201 70 167 0.0 12.0 0.00 0.00 0.00 86 1012.8
20260505055431 70 165 0.0 2.0 0.00 0.00 0.00 86 1012.9
20260505054928 70 175 0.0 2.0 0.00 0.00 0.00 86 1013.1
20260505054701 70 173 0.0 2.0 0.00 0.00 0.00 85 1013.1
20260505053928 70 155 0.0 2.0 0.00 0.00 0.00 85 1013.0
20260505053427 70 155 0.0 2.0 0.00 0.00 0.00 85 1012.9
20260505053159 71 172 0.0 6.0 0.00 0.00 0.00 84 1012.8
20260505052426 71 189 0.0 8.0 0.00 0.00 0.00 84 1012.9
20260505051924 71 169 1.0 8.0 0.00 0.00 0.00 84 1013.0
20260505051657 71 171 1.0 8.0 0.00 0.00 0.00 84 1012.9
20260505050925 71 171 1.0 9.0 0.00 0.00 0.00 84 1012.8
20260505050424 71 178 2.0 14.0 0.00 0.00 0.00 84 1012.9
20260505041655 72 174 3.0 12.0 0.00 0.00 0.00 83 1013.3
20260505041155 72 155 4.0 12.0 0.00 0.00 0.00 83 1013.2
20260505040421 72 177 3.0 12.0 0.00 0.00 0.00 83 1013.2
20260505035920 71 155 1.0 10.0 0.00 0.00 0.00 83 1013.1
20260505035419 72 185 1.0 9.0 0.00 0.00 0.00 83 1013.1
20260505034917 72 168 2.0 9.0 0.00 0.00 0.00 83 1013.0
20260505034416 72 189 3.0 9.0 0.00 0.00 0.00 83 1013.0
20260505034145 72 165 2.0 9.0 0.00 0.00 0.00 83 1013.0
20260505033412 72 172 1.0 9.0 0.00 0.00 0.00 83 1013.0
20260505032912 72 161 1.0 7.0 0.00 0.00 0.00 82 1013.1
20260505032641 72 175 2.0 9.0 0.00 0.00 0.00 82 1013.0
20260505031910 72 192 2.0 9.0 0.00 0.00 0.00 82 1012.9
20260505031411 73 169 3.0 10.0 0.00 0.00 0.00 81 1013.0
20260505030908 73 166 3.0 10.0 0.00 0.00 0.00 81 1012.9
20260505030409 73 171 4.0 11.0 0.00 0.00 0.00 81 1012.8
20260505025908 73 178 4.0 11.0 0.00 0.00 0.00 81 1013.0
20260505025406 73 165 4.0 11.0 0.00 0.00 0.00 80 1012.9
20260505024907 73 171 5.0 11.0 0.00 0.00 0.00 80 1012.9
20260505024408 73 182 5.0 11.0 0.00 0.00 0.00 80 1012.7
20260505023906 73 167 4.0 11.0 0.00 0.00 0.00 80 1012.9
20260505023406 73 163 4.0 10.0 0.00 0.00 0.00 80 1012.9
20260505022907 73 164 5.0 12.0 0.00 0.00 0.00 80 1012.9
20260505022407 74 168 5.0 12.0 0.00 0.00 0.00 79 1012.7
20260505021906 74 171 5.0 10.0 0.00 0.00 0.00 79 1012.7
20260505021407 74 178 4.0 10.0 0.00 0.00 0.00 79 1012.7
20260505020906 74 163 3.0 10.0 0.00 0.00 0.00 79 1012.6
20260505020406 74 165 3.0 14.0 0.00 0.00 0.00 78 1012.5
20260505015906 74 169 3.0 14.0 0.00 0.00 0.00 78 1012.5
20260505015404 74 197 4.0 12.0 0.00 0.00 0.00 78 1012.5
20260505014905 74 158 4.0 12.0 0.00 0.00 0.00 78 1012.5
20260505014635 74 162 3.0 11.0 0.00 0.00 0.00 77 1012.5
20260505013905 74 171 3.0 11.0 0.00 0.00 0.00 77 1012.5
20260505013402 74 162 3.0 11.0 0.00 0.00 0.00 77 1012.5
20260505012903 74 175 4.0 11.0 0.00 0.00 0.00 77 1012.4
20260505012402 75 170 3.0 11.0 0.00 0.00 0.00 76 1012.2
20260505012135 75 169 3.0 12.0 0.00 0.00 0.00 76 1012.1
20260505011403 75 190 4.0 12.0 0.00 0.00 0.00 75 1012.1
20260505010903 75 176 4.0 10.0 0.00 0.00 0.00 75 1012.1
20260505010404 75 159 4.0 9.0 0.00 0.00 0.00 74 1012.0
20260505005902 76 158 5.0 9.0 0.00 0.00 0.00 74 1012.0
20260505005402 76 180 5.0 10.0 0.00 0.00 0.00 73 1012.0
20260505004903 76 166 3.0 10.0 0.00 0.00 0.00 73 1012.1
20260505004400 76 153 2.0 9.0 0.00 0.00 0.00 72 1012.1
20260505003902 76 179 4.0 10.0 0.00 0.00 0.00 72 1012.0
20260505003400 76 157 6.0 11.0 0.00 0.00 0.00 72 1012.1
20260505002900 77 189 6.0 12.0 0.00 0.00 0.00 71 1012.1
20260505002631 77 169 6.0 12.0 0.00 0.00 0.00 71 1012.3
20260505001900 77 181 5.0 12.0 0.00 0.00 0.00 71 1012.3
20260505001400 77 176 4.0 10.0 0.00 0.00 0.00 71 1012.3
20260505000901 78 184 4.0 13.0 0.00 0.00 0.00 71 1012.5
20260505000401 78 140 3.0 13.0 0.00 0.00 0.00 71 1012.4
20260504235900 78 161 3.0 10.0 0.00 0.00 0.00 71 1012.6
20260504235358 78 176 3.0 10.0 0.00 0.00 0.00 71 1012.5
20260504234858 78 164 5.0 12.0 0.00 0.00 0.00 71 1012.6
20260504234356 78 171 6.0 12.0 0.00 0.00 0.00 70 1012.7
20260504233857 78 178 5.0 12.0 0.00 0.00 0.00 70 1012.6
20260504233357 78 179 4.0 12.0 0.00 0.00 0.00 70 1012.5
20260504232857 78 175 5.0 11.0 0.00 0.00 0.00 70 1012.7
20260504232357 78 143 5.0 11.0 0.00 0.00 0.00 71 1012.8
20260504231857 78 181 5.0 11.0 0.00 0.00 0.00 70 1012.6
20260504231626 78 161 6.0 14.0 0.00 0.00 0.00 69 1012.6
20260504230856 78 162 4.0 14.0 0.00 0.00 0.00 69 1012.8
20260504230353 78 128 3.0 12.0 0.00 0.00 0.00 70 1013.0
20260504230126 78 159 4.0 13.0 0.00 0.00 0.00 69 1013.1
20260504225354 78 143 5.0 13.0 0.00 0.00 0.00 68 1013.3
20260504224855 79 160 6.0 12.0 0.00 0.00 0.00 69 1013.3
20260504224353 79 181 6.0 12.0 0.00 0.00 0.00 68 1013.2
20260504223855 80 181 6.0 11.0 0.00 0.00 0.00 67 1013.2
20260504223354 80 171 6.0 12.0 0.00 0.00 0.00 68 1013.3
20260504222854 79 173 5.0 12.0 0.00 0.00 0.00 68 1013.3
20260504222354 79 139 6.0 12.0 0.00 0.00 0.00 68 1013.3
20260504221854 80 161 7.0 13.0 0.00 0.00 0.00 67 1013.4
20260504221354 80 173 6.0 13.0 0.00 0.00 0.00 68 1013.4
20260504220855 80 155 5.0 12.0 0.00 0.00 0.00 66 1013.4
20260504220355 80 157 6.0 11.0 0.00 0.00 0.00 68 1013.4
20260504215852 80 223 7.0 18.0 0.00 0.00 0.00 66 1013.5
20260504215353 80 156 6.0 18.0 0.00 0.00 0.00 67 1013.6
20260504214853 80 215 5.0 11.0 0.00 0.00 0.00 67 1013.8
20260504214352 80 204 4.0 11.0 0.00 0.00 0.00 67 1014.0
20260504213853 80 167 6.0 13.0 0.00 0.00 0.00 66 1014.0
20260504213622 80 207 7.0 13.0 0.00 0.00 0.00 65 1014.1
20260504212851 80 259 6.0 15.0 0.00 0.00 0.00 67 1014.2
20260504212349 80 176 5.0 15.0 0.00 0.00 0.00 65 1014.1
20260504211850 80 163 5.0 12.0 0.00 0.00 0.00 66 1014.3
20260504211350 80 163 5.0 12.0 0.00 0.00 0.00 64 1014.5
20260504210849 80 161 5.0 14.0 0.00 0.00 0.00 64 1014.6
20260504210622 80 167 6.0 14.0 0.00 0.00 0.00 66 1014.6
20260504205847 80 156 5.0 11.0 0.00 0.00 0.00 65 1014.6
20260504205620 80 166 4.0 13.0 0.00 0.00 0.00 64 1014.8
20260504204849 81 192 5.0 13.0 0.00 0.00 0.00 63 1014.9
20260504204349 81 155 3.0 12.0 0.00 0.00 0.00 64 1015.0
20260504203848 81 147 3.0 11.0 0.00 0.00 0.00 62 1015.1
20260504203620 81 169 6.0 18.0 0.00 0.00 0.00 64 1015.1
20260504202848 80 184 6.0 18.0 0.00 0.00 0.00 65 1015.1
20260504202348 80 134 7.0 14.0 0.00 0.00 0.00 63 1015.2
20260504201848 80 175 5.0 14.0 0.00 0.00 0.00 61 1015.3
20260504201616 81 225 4.0 12.0 0.00 0.00 0.00 64 1015.3
20260504200847 80 144 7.0 12.0 0.00 0.00 0.00 64 1015.5
20260504200619 81 188 5.0 16.0 0.00 0.00 0.00 62 1015.5
20260504195844 81 189 2.0 16.0 0.00 0.00 0.00 64 1015.9
20260504195342 81 193 5.0 17.0 0.00 0.00 0.00 62 1015.8
20260504195115 80 194 7.0 17.0 0.00 0.00 0.00 61 1016.0
20260504194347 80 189 4.0 13.0 0.00 0.00 0.00 64 1016.2
20260504194341 80 177 5.0 17.0 0.00 0.00 0.00 62 1016.1
20260504193342 80 161 6.0 15.0 0.00 0.00 0.00 63 1016.1
20260504193113 80 169 6.0 15.0 0.00 0.00 0.00 63 1016.2
20260504192341 81 197 5.0 15.0 0.00 0.00 0.00 64 1016.2
20260504191841 80 175 5.0 15.0 0.00 0.00 0.00 65 1016.2
20260504191343 81 211 5.0 14.0 0.00 0.00 0.00 65 1016.2
20260504190843 80 149 6.0 15.0 0.00 0.00 0.00 66 1016.3
20260504190343 80 184 7.0 15.0 0.00 0.00 0.00 64 1016.2
20260504185843 79 175 7.0 16.0 0.00 0.00 0.00 65 1016.3
20260504185343 80 165 4.0 16.0 0.00 0.00 0.00 61 1016.5
20260504184844 80 229 4.0 12.0 0.00 0.00 0.00 64 1016.7
20260504184342 80 143 5.0 13.0 0.00 0.00 0.00 63 1016.7
20260504183843 80 180 5.0 13.0 0.00 0.00 0.00 64 1016.8
20260504183611 80 167 4.0 12.0 0.00 0.00 0.00 64 1016.9
20260504183112 80 169 2.0 10.0 0.00 0.00 0.00 64 1016.9
20260504182339 79 175 3.0 12.0 0.00 0.00 0.00 64 1016.8
20260504181840 79 167 6.0 13.0 0.00 0.00 0.00 63 1016.8
20260504181339 79 169 7.0 13.0 0.00 0.00 0.00 63 1016.9
20260504180846 78 193 5.0 13.0 0.00 0.00 0.00 63 1017.1
20260504180840 78 198 6.0 13.0 0.00 0.00 0.00 66 1017.1
20260504175847 78 263 6.0 15.0 0.00 0.00 0.00 66 1017.4
20260504175841 78 166 5.0 13.0 0.00 0.00 0.00 65 1017.2
20260504175111 78 175 7.0 15.0 0.00 0.00 0.00 64 1017.6
20260504173842 78 270 5.0 18.0 0.00 0.00 0.00 64 1017.5
20260504173339 78 171 5.0 15.0 0.00 0.00 0.00 63 1017.6
20260504172840 77 179 7.0 15.0 0.00 0.00 0.00 66 1017.6
20260504172340 77 198 8.0 16.0 0.00 0.00 0.00 65 1017.7
20260504171840 77 198 8.0 16.0 0.00 0.00 0.00 65 1017.8
20260504171611 76 178 8.0 15.0 0.00 0.00 0.00 65 1017.8
20260504170836 76 163 8.0 19.0 0.00 0.00 0.00 65 1017.9
20260504170335 76 188 7.0 19.0 0.00 0.00 0.00 65 1017.8